This is the latest recevied weather packets stored in our database for station/object VE4GLS. If no packets are shown the sender has not sent any weather packets the latest 10 day(s).
| Time | Temp. | Humidity | Pressure | Rain* | Wind** | Luminosity | Snow |
|---|---|---|---|---|---|---|---|
| 1778162494 | 3.33° C | 57% | 1009.8 hPa | 0 mm | - | - | - |
| 1778161894 | 3.33° C | 59% | 1009.9 hPa | 0 mm | - | - | - |
| 1778161654 | 2.78° C | 59% | 1010 hPa | 0 mm | - | - | - |
| 1778161296 | 2.22° C | 61% | 1009.9 hPa | 0 mm | - | - | - |
| 1778160756 | 1.67° C | 64% | 1009.9 hPa | 0 mm | - | - | - |
| 1778160696 | 1.67° C | 65% | 1009.9 hPa | 0 mm | - | - | - |
| 1778160094 | 0.56° C | 68% | 1009.9 hPa | 0 mm | - | - | - |
| 1778159854 | 0° C | 70% | 1010 hPa | 0 mm | - | - | - |
| 1778159494 | -0.56° C | 73% | 1009.9 hPa | 0 mm | - | - | - |
| 1778158954 | -1.11° C | 79% | 1010.1 hPa | 0 mm | - | - | - |
| 1778158894 | -1.67° C | 79% | 1010.1 hPa | 0 mm | - | - | - |
| 1778158296 | -2.78° C | 83% | 1009.8 hPa | 0 mm | - | - | - |
| 1778158056 | -2.78° C | 85% | 1009.7 hPa | 0 mm | - | - | - |
| 1778157696 | -3.89° C | 86% | 1009.7 hPa | 0 mm | - | - | - |
| 1778157156 | -5° C | 87% | 1009.7 hPa | 0 mm | - | - | - |
| 1778157095 | -5° C | 87% | 1009.7 hPa | 0 mm | - | - | - |
| 1778156494 | -6.11° C | 86% | 1009.8 hPa | 0 mm | - | - | - |
| 1778156255 | -6.11° C | 86% | 1009.9 hPa | 0 mm | - | - | - |
| 1778155894 | -6.67° C | 86% | 1009.9 hPa | 0 mm | - | - | - |
| 1778155356 | -6.67° C | 85% | 1009.8 hPa | 0 mm | - | - | - |
| 1778155296 | -6.67° C | 86% | 1009.8 hPa | 0 mm | - | - | - |
| 1778154695 | -7.22° C | 85% | 1009.7 hPa | 0 mm | - | - | - |
| 1778154455 | -7.22° C | 84% | 1009.7 hPa | 0 mm | - | - | - |
| 1778154095 | -7.22° C | 83% | 1009.7 hPa | 0 mm | - | - | - |
| 1778153554 | -6.67° C | 81% | 1009.6 hPa | 0 mm | - | - | - |
* Rain latest hour (hover to see other rain measurements)
** Current wind speed in m/s (hover to see current wind gust speed)